📊 Raw Sensor Data

Showing records 47101 to 47125 of 85,080 total

ID Distance (ft) Battery V Battery A Int Temp (°F) Int Humid (%) Ext Temp (°F) Solar V RSSI SNR Time Stamp
37992 -- 4.07 0 77 39 69 5.10 -79 9 04/16/2025 02:45 PM
37991 -- 3.92 0 76 39 69 5.10 -87 8 04/16/2025 02:30 PM
37990 15.5 3.83 0 75 39 68 5.10 -85 7 04/16/2025 02:15 PM
37989 -- 3.83 0 74 39 66 5.10 -94 6 04/16/2025 02:00 PM
37988 15.4 3.83 0 73 39 65 5.10 -84 8 04/16/2025 01:45 PM
37987 -- 3.83 0 73 39 66 5.10 -89 8 04/16/2025 01:30 PM
37986 15.4 3.83 0 71 39 67 5.10 -83 7 04/16/2025 01:15 PM
37985 15.5 4.08 0 71 39 65 5.10 -87 8 04/16/2025 01:00 PM
37984 15.5 3.85 0 70 40 65 5.10 -86 7 04/16/2025 12:45 PM
37983 15.5 3.83 0 70 39 65 5.10 -84 8 04/16/2025 12:30 PM
37982 15.5 3.90 0 70 39 65 5.10 -87 8 04/16/2025 12:15 PM
37981 -- 3.83 0 69 39 66 5.10 -84 8 04/16/2025 12:01 PM
37980 15.5 3.87 0 68 39 66 5.10 -87 6 04/16/2025 11:45 AM
37979 15.4 3.83 0 67 39 62 5.10 -88 8 04/16/2025 11:30 AM
37978 15.4 3.83 0 66 40 66 5.10 -83 8 04/16/2025 11:15 AM
37977 15.5 3.83 0 64 40 63 5.10 -87 7 04/16/2025 11:00 AM
37976 15.4 3.83 0 62 40 61 5.10 -82 8 04/16/2025 10:30 AM
37975 15.3 3.83 0 61 40 59 5.10 -81 8 04/16/2025 10:15 AM
37974 15.4 3.83 0 62 40 62 5.10 -80 7 04/16/2025 10:00 AM
37973 -- 3.83 0 60 40 61 5.10 -82 8 04/16/2025 09:30 AM
37972 -- 3.83 0 59 39 61 5.10 -82 9 04/16/2025 09:15 AM
37971 -- 3.83 0 58 39 58 5.10 -80 8 04/16/2025 09:00 AM
37970 -- 3.83 0 56 40 58 5.10 -82 8 04/16/2025 08:45 AM
37969 -- 3.83 0 55 40 55 5.10 -78 8 04/16/2025 08:30 AM
37968 -- 4.08 0 56 39 55 5.10 -83 8 04/16/2025 08:16 AM